Location: Indian Tree Observatory
(39.4030°N, 104.5929°W)
Time: 19:35:04
(UTC-07:00)

N. Korean satellite - Visible Passes

Search period start: 18 November 2018 00:00
Search period end: 28 November 2018 00:00
Orbit: 457 x 511 km, 97.2° (Epoch: 18 November)

Date Brightness Start Highest point End Pass type
(mag) Time Alt. Az. Time Alt. Az. Time Alt. Az.
18 Nov 6.6 17:16:18 10° SSE 17:19:50 54° ENE 17:23:18 10° N visible
19 Nov 9.7 18:26:27 10° SW 18:28:51 17° W 18:31:15 10° NW visible
20 Nov 8.3 05:52:58 10° NNE 05:56:09 36° E 05:59:20 10° SSE visible
20 Nov 8.4 18:00:57 10° SSW 18:04:15 34° W 18:07:30 10° NNW visible
21 Nov 9.7 05:29:11 10° NE 05:31:32 17° E 05:33:53 10° SE visible
21 Nov 6.7 17:36:08 10° S 17:39:42 78° WSW 17:43:15 10° NNW visible
22 Nov 6.8 17:11:49 10° SSE 17:15:14 46° ENE 17:18:38 10° N visible
23 Nov 6.8 06:12:39 10° NNE 06:16:04 73° E 06:19:30 10° S visible
23 Nov 9.5 18:21:39 10° SW 18:24:14 19° W 18:26:48 10° NW visible
24 Nov 8.6 05:48:24 10° NNE 05:51:31 31° E 05:54:36 10° SSE visible
24 Nov 8.1 17:56:17 10° S 17:59:37 39° W 18:02:56 10° NNW visible
25 Nov 9.8 05:24:45 10° NE 05:26:52 15° E 05:28:58 10° SE visible
25 Nov 6.5 17:31:32 10° SSE 17:35:04 89° WSW 17:38:35 10° NNW visible
26 Nov 6.9 17:07:17 10° SE 17:10:37 40° ENE 17:13:54 10° N visible
26 Nov 10.2 18:43:41 10° W 18:44:14 10° W 18:44:48 10° W visible
27 Nov 7.0 06:07:59 10° NNE 06:11:24 62° E 06:14:50 10° S visible
27 Nov 9.3 18:16:49 10° SSW 18:19:33 21° W 18:22:16 10° NW visible
